This is the latest recevied weather packets stored in our database for station/object KB3UQE. If no packets are shown the sender has not sent any weather packets the latest 10 day(s).
| Time | Temp. | Humidity | Pressure | Rain* | Wind** | Luminosity | Snow |
|---|---|---|---|---|---|---|---|
| 1777875539 | 5° C | 31% | 1011.7 hPa | - | - | - | - |
| 1777873845 | 5° C | 31% | 1011.7 hPa | - | - | - | - |
| 1777873533 | 5° C | 31% | 1011.7 hPa | - | - | - | - |
| 1777871624 | 5° C | 31% | 1011.9 hPa | - | - | - | - |
| 1777871438 | 5° C | 31% | 1011.9 hPa | - | - | - | - |
| 1777869503 | 5.56° C | 31% | 1011.9 hPa | - | - | - | - |
| 1777867703 | 5.56° C | 30% | 1011.6 hPa | - | - | - | - |
| 1777865902 | 6.11° C | 30% | 1011.3 hPa | - | - | - | - |
| 1777864102 | 6.67° C | 30% | 1011.1 hPa | - | - | - | - |
| 1777862662 | 7.22° C | 30% | 1011.1 hPa | - | - | - | - |
| 1777861223 | 7.78° C | 30% | 1011 hPa | - | - | - | - |
| 1777859781 | 8.33° C | 30% | 1011 hPa | - | - | - | - |
| 1777858340 | 8.89° C | 29% | 1010.9 hPa | - | - | - | - |
| 1777856900 | 10° C | 29% | 1010.6 hPa | - | - | - | - |
| 1777855100 | 11.67° C | 29% | 1010.3 hPa | - | - | - | - |
| 1777853300 | 13.33° C | 29% | 1009.9 hPa | - | - | - | - |
| 1777851499 | 15.56° C | 28% | 1009.3 hPa | - | - | - | - |
| 1777850060 | 17.22° C | 28% | 1009.1 hPa | - | - | - | - |
| 1777848799 | 17.78° C | 28% | 1008.9 hPa | - | - | - | - |
| 1777847359 | 18.33° C | 28% | 1008.3 hPa | - | - | - | - |
| 1777846099 | 18.33° C | 27% | 1008.9 hPa | - | - | - | - |
| 1777844838 | 18.89° C | 27% | 1009 hPa | - | - | - | - |
| 1777843578 | 20° C | 26% | 1009.4 hPa | - | - | - | - |
| 1777842321 | 22.22° C | 25% | 1013.9 hPa | - | - | - | - |
| 1777840883 | 19.44° C | 26% | 1014.9 hPa | - | - | - | - |
* Rain since midnight (hover to see other rain measurements)
** Current wind speed in m/s (hover to see current wind gust speed)